EWG7YA EDDH-EDDK

Flight info

Callsign EWG7YA
Flight time 0h 41m
Altitude 26000
Route IDEKO8B IDEKO N850 NIE DCT LARBU DCT PODER Z189 RUNER T858 KOPAG KOPAG1B
Aircraft A321/M-SDE3FGHIRWY/LB1

Departure

Time 2026-04-23 17:31
Airport Hamburg Helmut Schmidt Airport (EDDH)

Arrival

Time 2026-04-23 18:12
Airport Cologne Bonn Airport (EDDK)
Time Latitude Longitude Altitude Speed Heading
2026-04-23 16:55 53.63206 10.00368 49 ft 0 kts 86°
2026-04-23 16:55 53.63206 10.00367 49 ft 0 kts 86°
2026-04-23 17:14 53.63206 10.00366 48 ft 0 kts 86°
2026-04-23 17:23 53.63205 10.00332 48 ft 4 kts 86°
2026-04-23 17:23 53.63203 10.00287 48 ft 4 kts 86°
2026-04-23 17:23 53.63208 10.00201 48 ft 4 kts 127°
2026-04-23 17:24 53.63225 10.00178 48 ft 2 kts 175°
2026-04-23 17:24 53.63227 10.00178 47 ft 1 kts 176°
2026-04-23 17:28 53.63205 10.00180 48 ft 8 kts 176°
2026-04-23 17:28 53.63149 10.00187 48 ft 11 kts 176°
2026-04-23 17:28 53.63063 10.00173 48 ft 12 kts 206°
2026-04-23 17:29 53.62986 10.00096 47 ft 14 kts 212°
2026-04-23 17:29 53.62922 10.00000 48 ft 11 kts 240°
2026-04-23 17:29 53.62868 9.99736 43 ft 13 kts 295°
2026-04-23 17:30 53.62920 9.99695 44 ft 13 kts 340°
2026-04-23 17:30 53.63770 9.98963 49 ft 133 kts 333°
2026-04-23 17:30 53.64758 9.98119 136 ft 177 kts 330°
2026-04-23 17:31 53.65848 9.97206 945 ft 173 kts 330°
2026-04-23 17:31 53.66938 9.96282 1587 ft 182 kts 332°
2026-04-23 17:31 53.68134 9.95267 1874 ft 202 kts 332°
2026-04-23 17:31 53.69453 9.94143 2219 ft 219 kts 332°
2026-04-23 17:32 53.70674 9.92766 3083 ft 210 kts 315°
2026-04-23 17:32 53.71380 9.90640 3844 ft 211 kts 287°
2026-04-23 17:32 53.71362 9.88036 4146 ft 238 kts 263°
2026-04-23 17:32 53.70919 9.85230 4510 ft 260 kts 256°
2026-04-23 17:33 53.70307 9.82303 5174 ft 267 kts 253°
2026-04-23 17:33 53.69643 9.79308 5930 ft 271 kts 253°
2026-04-23 17:33 53.68984 9.76304 6667 ft 274 kts 254°
2026-04-23 17:33 53.68336 9.73259 7360 ft 278 kts 255°
2026-04-23 17:34 53.67703 9.70202 8052 ft 281 kts 255°
2026-04-23 17:34 53.67068 9.67060 8761 ft 284 kts 255°
2026-04-23 17:34 53.65454 9.60878 10079 ft 300 kts 234°
2026-04-23 17:35 53.63893 9.58530 10239 ft 307 kts 212°
2026-04-23 17:35 53.59415 9.56760 10278 ft 351 kts 187°
2026-04-23 17:35 53.56960 9.56305 10278 ft 360 kts 187°
2026-04-23 17:36 53.54469 9.55831 10312 ft 365 kts 187°
2026-04-23 17:36 53.51930 9.55330 10864 ft 370 kts 187°
2026-04-23 17:36 53.49359 9.54815 11460 ft 374 kts 187°
2026-04-23 17:36 53.46765 9.54297 12084 ft 377 kts 187°
2026-04-23 17:37 53.44151 9.53778 12700 ft 380 kts 187°
2026-04-23 17:37 53.41519 9.53258 13307 ft 383 kts 187°
2026-04-23 17:37 53.36167 9.52216 14480 ft 390 kts 187°
2026-04-23 17:38 53.33460 9.51688 15027 ft 393 kts 187°
2026-04-23 17:38 53.30741 9.51158 15587 ft 395 kts 186°
2026-04-23 17:38 53.28003 9.50622 16144 ft 397 kts 186°
2026-04-23 17:38 53.25247 9.50078 16701 ft 400 kts 187°
2026-04-23 17:39 53.22472 9.49527 17253 ft 402 kts 187°
2026-04-23 17:39 53.19678 9.48975 17793 ft 405 kts 186°
2026-04-23 17:39 53.16875 9.48426 18317 ft 408 kts 186°
2026-04-23 17:39 53.14042 9.47875 18793 ft 410 kts 186°
2026-04-23 17:40 53.11200 9.47327 19229 ft 412 kts 186°
2026-04-23 17:40 53.08340 9.46777 19664 ft 415 kts 186°
2026-04-23 17:40 53.05502 9.46229 20099 ft 417 kts 186°
2026-04-23 17:40 53.02614 9.45672 20275 ft 419 kts 186°
2026-04-23 17:41 52.99714 9.45112 20706 ft 420 kts 186°
2026-04-23 17:41 52.93876 9.43918 21576 ft 424 kts 187°
2026-04-23 17:41 52.90937 9.43277 22002 ft 427 kts 187°
2026-04-23 17:42 52.85011 9.41969 22843 ft 431 kts 187°
2026-04-23 17:42 52.82028 9.41326 23267 ft 434 kts 187°
2026-04-23 17:42 52.79031 9.40694 23676 ft 436 kts 186°
2026-04-23 17:43 52.76017 9.40063 24059 ft 438 kts 186°
2026-04-23 17:43 52.72986 9.39425 24393 ft 440 kts 186°
2026-04-23 17:43 52.69930 9.38781 24739 ft 442 kts 186°
2026-04-23 17:43 52.66884 9.38135 25088 ft 443 kts 186°
2026-04-23 17:44 52.63818 9.37490 25440 ft 445 kts 186°
2026-04-23 17:44 52.60733 9.36832 25771 ft 447 kts 187°
2026-04-23 17:44 52.54559 9.35341 26251 ft 449 kts 187°
2026-04-23 17:45 52.51481 9.34553 26275 ft 446 kts 187°
2026-04-23 17:45 52.45357 9.32997 26274 ft 445 kts 187°
2026-04-23 17:45 52.42298 9.32239 26274 ft 445 kts 187°
2026-04-23 17:46 52.36210 9.30754 26275 ft 445 kts 187°
2026-04-23 17:46 52.33149 9.30015 26278 ft 445 kts 187°
2026-04-23 17:46 52.30090 9.29280 26299 ft 445 kts 187°
2026-04-23 17:47 52.27017 9.28539 26298 ft 445 kts 187°
2026-04-23 17:47 52.24950 9.28038 26294 ft 445 kts 187°
2026-04-23 17:47 52.18816 9.26565 26294 ft 445 kts 187°
2026-04-23 17:48 52.15757 9.25836 26295 ft 445 kts 187°
2026-04-23 17:48 52.12689 9.25101 26286 ft 445 kts 187°
2026-04-23 17:48 52.09631 9.24365 26287 ft 445 kts 187°
2026-04-23 17:48 52.06567 9.23626 26288 ft 445 kts 187°
2026-04-23 17:49 52.03546 9.22899 26287 ft 445 kts 187°
2026-04-23 17:49 52.00451 9.22163 26279 ft 445 kts 187°
2026-04-23 17:49 51.97428 9.21445 26277 ft 445 kts 187°
2026-04-23 17:49 51.94369 9.20679 26279 ft 445 kts 190°
2026-04-23 17:50 51.91386 9.19309 26280 ft 446 kts 200°
2026-04-23 17:50 51.86055 9.14188 26281 ft 448 kts 220°
2026-04-23 17:50 51.83873 9.10604 26283 ft 448 kts 229°
2026-04-23 17:51 51.81844 9.06787 26282 ft 448 kts 229°
2026-04-23 17:51 51.79801 9.02972 26276 ft 448 kts 229°
2026-04-23 17:51 51.75703 8.95385 26284 ft 449 kts 229°
2026-04-23 17:52 51.73649 8.91600 26289 ft 449 kts 228°
2026-04-23 17:52 51.69532 8.84040 26293 ft 448 kts 228°
2026-04-23 17:52 51.67472 8.80258 26296 ft 448 kts 228°
2026-04-23 17:53 51.63380 8.72751 26286 ft 448 kts 227°
2026-04-23 17:53 51.61137 8.69293 26284 ft 447 kts 218°
2026-04-23 17:53 51.58601 8.66435 26284 ft 446 kts 209°
2026-04-23 17:54 51.55898 8.63995 25943 ft 446 kts 208°
2026-04-23 17:54 51.53163 8.61549 25055 ft 449 kts 208°
2026-04-23 17:54 51.47785 8.56731 23955 ft 438 kts 208°
2026-04-23 17:55 51.42525 8.52020 22813 ft 426 kts 208°
2026-04-23 17:55 51.39957 8.49724 22299 ft 419 kts 208°
2026-04-23 17:55 51.37424 8.47462 21794 ft 414 kts 208°
2026-04-23 17:56 51.34925 8.45239 21316 ft 408 kts 208°
2026-04-23 17:56 51.30057 8.40786 20360 ft 398 kts 214°
2026-04-23 17:56 51.27945 8.37978 19898 ft 393 kts 226°
2026-04-23 17:57 51.26207 8.34653 19432 ft 388 kts 236°
2026-04-23 17:57 51.24827 8.30994 18985 ft 382 kts 241°
2026-04-23 17:57 51.22191 8.23717 18008 ft 374 kts 240°
2026-04-23 17:58 51.20887 8.20156 17537 ft 369 kts 241°
2026-04-23 17:58 51.19597 8.16647 17052 ft 365 kts 241°
2026-04-23 17:58 51.18337 8.13223 16602 ft 361 kts 241°
2026-04-23 17:58 51.17071 8.09778 16140 ft 359 kts 241°
2026-04-23 17:59 51.15819 8.06363 15667 ft 356 kts 241°
2026-04-23 17:59 51.14574 8.02969 15194 ft 353 kts 242°
2026-04-23 17:59 51.13338 7.99601 14723 ft 351 kts 242°
2026-04-23 17:59 51.12108 7.96253 14246 ft 349 kts 242°
2026-04-23 18:00 51.10882 7.92931 13748 ft 347 kts 242°
2026-04-23 18:00 51.09663 7.89640 13264 ft 344 kts 242°
2026-04-23 18:00 51.08456 7.86375 12796 ft 341 kts 242°
2026-04-23 18:00 51.07144 7.83253 12329 ft 339 kts 232°
2026-04-23 18:01 51.05490 7.80592 11869 ft 338 kts 220°
2026-04-23 18:01 51.03549 7.78497 11392 ft 337 kts 209°
2026-04-23 18:01 51.01494 7.76641 10928 ft 348 kts 213°
2026-04-23 18:01 50.99482 7.74628 10519 ft 330 kts 213°
2026-04-23 18:02 50.97622 7.72757 10220 ft 307 kts 213°
2026-04-23 18:02 50.95846 7.70979 9519 ft 299 kts 213°
2026-04-23 18:02 50.94083 7.69223 8969 ft 300 kts 214°
2026-04-23 18:02 50.92326 7.67478 8650 ft 296 kts 213°
2026-04-23 18:03 50.90590 7.65754 8343 ft 294 kts 213°
2026-04-23 18:03 50.88861 7.64037 8009 ft 292 kts 213°
2026-04-23 18:03 50.87140 7.62333 7660 ft 291 kts 213°
2026-04-23 18:03 50.85430 7.60642 7392 ft 285 kts 213°
2026-04-23 18:04 50.83797 7.59037 7257 ft 266 kts 213°
2026-04-23 18:04 50.82292 7.57565 7179 ft 244 kts 213°
2026-04-23 18:04 50.80866 7.56172 6937 ft 238 kts 213°
2026-04-23 18:04 50.79472 7.54814 6653 ft 234 kts 213°
2026-04-23 18:05 50.78092 7.53472 6347 ft 231 kts 213°
2026-04-23 18:05 50.76731 7.52152 6029 ft 228 kts 213°
2026-04-23 18:05 50.75383 7.50844 5727 ft 226 kts 213°
2026-04-23 18:05 50.74045 7.49559 5429 ft 225 kts 213°
2026-04-23 18:06 50.72715 7.48285 5123 ft 222 kts 213°
2026-04-23 18:06 50.71410 7.47013 4808 ft 218 kts 218°
2026-04-23 18:06 50.70506 7.45223 4476 ft 205 kts 255°
2026-04-23 18:06 50.70455 7.43110 4232 ft 188 kts 287°
2026-04-23 18:07 50.70826 7.41158 4010 ft 184 kts 292°
2026-04-23 18:07 50.71241 7.39289 3757 ft 182 kts 293°
2026-04-23 18:07 50.71670 7.37405 3552 ft 182 kts 293°
2026-04-23 18:07 50.72265 7.35676 3344 ft 178 kts 315°
2026-04-23 18:08 50.72872 7.34779 3261 ft 176 kts 320°
2026-04-23 18:08 50.74082 7.33050 3161 ft 177 kts 320°
2026-04-23 18:08 50.74995 7.31741 3071 ft 177 kts 320°
2026-04-23 18:08 50.75900 7.30439 2883 ft 175 kts 320°
2026-04-23 18:09 50.76795 7.29152 2662 ft 173 kts 320°
2026-04-23 18:09 50.77684 7.27873 2428 ft 172 kts 320°
2026-04-23 18:09 50.78570 7.26598 2195 ft 172 kts 320°
2026-04-23 18:09 50.79448 7.25333 1988 ft 166 kts 320°
2026-04-23 18:10 50.80262 7.24158 1747 ft 150 kts 320°
2026-04-23 18:10 50.80994 7.23103 1550 ft 136 kts 319°
2026-04-23 18:10 50.81689 7.22100 1364 ft 135 kts 319°
2026-04-23 18:10 50.82388 7.21089 1208 ft 135 kts 318°
2026-04-23 18:11 50.83059 7.20116 1029 ft 133 kts 319°
2026-04-23 18:11 50.83754 7.19119 827 ft 133 kts 318°
2026-04-23 18:11 50.84430 7.18139 659 ft 133 kts 318°
2026-04-23 18:11 50.85117 7.17149 476 ft 134 kts 319°
2026-04-23 18:12 50.85816 7.16139 319 ft 139 kts 318°
2026-04-23 18:12 50.86458 7.15212 282 ft 105 kts 317°
2026-04-23 18:12 50.86870 7.14617 262 ft 55 kts 317°
2026-04-23 18:12 50.87074 7.14318 252 ft 29 kts 317°
2026-04-23 18:13 50.87218 7.14104 246 ft 29 kts 312°
2026-04-23 18:13 50.87308 7.13824 240 ft 28 kts 281°
2026-04-23 18:13 50.87338 7.13534 234 ft 24 kts 280°
2026-04-23 18:13 50.87368 7.13301 232 ft 17 kts 296°
2026-04-23 18:14 50.87445 7.13162 232 ft 17 kts 317°
2026-04-23 18:14 50.87535 7.13037 232 ft 17 kts 318°
2026-04-23 18:14 50.87627 7.12907 232 ft 18 kts 316°
2026-04-23 18:14 50.87723 7.12765 232 ft 19 kts 317°
2026-04-23 18:15 50.87792 7.12662 232 ft 13 kts 318°
2026-04-23 18:15 50.87863 7.12611 232 ft 7 kts 347°
2026-04-23 18:15 50.87895 7.12555 234 ft 7 kts 290°
2026-04-23 18:15 50.87903 7.12520 232 ft 3 kts 288°
2026-04-23 18:16 50.87907 7.12497 232 ft 1 kts 288°
2026-04-23 18:16 50.87907 7.12496 232 ft 0 kts 288°